Location: Newark
(15.3000°N, 61.3833°W)
Time: 09:25:22
(UTC+00:00)

Envisat - Visible Passes

Search period start: 15 October 2019 00:00
Search period end: 25 October 2019 00:00
Orbit: 764 x 766 km, 98.1° (Epoch: 15 October)

Date Brightness Start Highest point End Pass type
(mag) Time Alt. Az. Time Alt. Az. Time Alt. Az.
15 Oct 3.2 22:09:26 10° SSE 22:14:19 50° ENE 22:19:13 10° N visible
16 Oct 5.0 23:12:10 10° SSW 23:16:28 28° W 23:20:48 10° NW visible
17 Oct 3.1 22:34:41 10° S 22:39:45 80° WSW 22:44:49 10° NNW visible
18 Oct 3.5 21:58:28 10° SE 22:03:06 37° ENE 22:07:44 10° N visible
18 Oct 6.0 23:39:30 10° SW 23:42:01 14° W 23:44:31 10° WNW visible
19 Oct 4.5 23:00:32 10° SSW 23:05:13 38° W 23:09:54 10° NNW visible
20 Oct 2.9 22:23:27 10° SSE 22:28:30 77° ENE 22:33:34 10° N visible
21 Oct 5.7 23:27:14 10° SW 23:30:44 19° W 23:34:14 10° NW visible
22 Oct 3.9 22:49:03 10° S 22:53:57 52° W 22:58:53 10° NNW visible
23 Oct 6.8 09:36:25 10° E 09:37:47 11° E 09:39:08 10° ESE visible
23 Oct 3.0 22:12:20 10° SSE 22:17:16 56° ENE 22:22:14 10° N visible
24 Oct 5.2 23:15:20 10° SSW 23:19:27 25° W 23:23:35 10° NW visible
